User: anonymous   Login
Location: Unspecified
(0.0000°N, 0.0000°E)
Time: 12:50:19
(UTC+00:00)
Language:

Kosmos-1655 - Orbit

View from above orbital plane
View from above orbital plane
View from above satellite
View from above satellite

Ground track
Ground track

The orbit data is extracted from the following two-line orbital elements,

1 15751U 85041A   17229.78284944  .00000018  00000-0  26159-5 0  9991
2 15751  82.9480 280.7054 0027701  48.5966  88.5688 13.71691448612751
Epoch (UTC): 17 August 2017 18:47:18
Eccentricity: 0.0027701
inclination: 82.9480°
perigee height: 973 km
apogee height: 1014 km
right ascension of ascending node: 280.7054°
argument of perigee: 48.5966°
revolutions per day: 13.71691448
mean anomaly at epoch: 88.5688°
orbit number at epoch: 61275

The dashed part of the orbit path shows where the satellite is in the earth's shadow,  

DLR